Theta_e
289 289 290 290 290 290 290 290 290 289 289 289 289 288 288 288 288 288 287 287 287 287 287 287 286 286 286 286 286 287 286 287 287 287 287 287 287 287 287 287 287 287 287 287 287 287 287 287 286 286 286 286 286 286 286 286 286 286 286 286 286 287 287 286 286 286 286 286 287 287 287 288 288 289 290 292 294 295 297 297 297 297 297 297 298
289 289 290 290 290 290 290 289 289 289 289 289 288 288 288 288 288 287 287 287 287 287 286 286 286 286 286 286 286 286 286 286 286 287 287 287 287 287 287 287 287 287 287 287 287 287 287 287 287 286 286 286 286 286 286 285 285 285 285 285 285 286 286 286 286 286 286 287 286 287 287 287 287 288 288 289 290 291 293 295 296 297 297 297 297
290 290 290 290 290 290 289 289 289 289 289 289 288 288 288 288 288 287 287 287 287 286 286 286 286 286 286 286 286 286 286 286 286 286 286 286 286 286 286 286 286 286 286 286 287 286 286 287 287 286 286 286 286 286 285 285 285 285 285 285 284 285 285 285 285 285 286 286 286 286 287 287 287 287 287 287 288 288 289 291 293 295 296 297 297
290 290 290 290 290 290 290 289 289 289 289 289 288 288 288 288 287 287 287 287 287 286 286 286 285 286 286 286 286 285 285 285 285 286 286 286 286 286 286 286 286 286 286 286 286 286 286 286 286 286 286 286 286 285 285 284 284 284 284 285 284 284 284 284 284 284 285 285 286 286 286 286 287 287 287 287 287 287 287 288 289 290 293 295 296
290 290 290 290 290 290 289 289 289 289 289 288 288 288 288 287 287 287 287 286 286 286 285 285 285 285 285 285 285 285 285 285 285 285 285 285 285 285 285 285 285 285 285 285 285 285 285 285 286 286 286 286 286 285 284 283 283 283 283 283 283 283 283 283 283 284 283 284 285 285 285 285 286 287 287 287 287 287 287 287 287 288 289 291 293
290 290 290 290 290 289 289 289 289 288 288 288 288 288 287 287 287 287 286 286 286 286 285 285 285 285 285 285 285 285 285 285 285 285 285 285 285 285 285 285 285 285 285 285 285 285 284 284 284 284 284 284 284 284 284 283 282 282 281 281 281 281 282 283 283 283 283 283 284 284 284 284 284 285 286 287 287 287 287 287 287 287 287 288 289
290 290 290 289 289 289 289 289 289 288 288 288 288 288 287 287 287 287 286 286 286 285 285 285 285 285 285 284 284 285 285 285 284 284 284 284 284 284 284 284 284 284 284 284 284 284 283 282 282 281 281 280 281 281 281 281 281 281 281 280 280 280 280 281 282 282 282 283 283 283 283 283 283 284 285 285 286 287 287 287 287 287 287 287 287
290 290 289 289 289 289 289 289 289 288 288 288 288 288 287 287 287 286 286 285 285 284 284 284 284 284 284 284 284 285 284 284 284 284 284 284 284 284 284 284 284 284 284 283 283 283 282 281 280 280 279 279 278 278 278 278 279 279 279 279 279 279 279 279 280 280 281 281 282 283 283 283 283 283 283 283 284 286 286 286 286 287 287 286 287
290 289 289 289 289 289 289 289 288 288 288 288 288 287 287 287 287 286 285 285 284 284 284 284 284 284 284 284 284 284 284 284 284 284 284 284 284 283 283 283 283 283 283 282 282 281 281 280 279 279 278 277 277 276 276 276 276 277 277 277 277 278 278 278 278 279 279 280 280 281 282 282 282 283 283 283 283 284 285 285 285 287 287 286 286
290 289 289 289 289 289 289 288 288 288 288 288 287 287 287 287 286 285 285 284 284 284 284 284 284 284 284 284 284 284 284 284 284 283 283 283 283 283 282 282 282 281 281 281 280 279 279 279 278 278 277 276 276 275 275 275 275 275 276 276 276 277 277 278 278 278 279 279 280 280 281 282 282 282 282 283 283 283 284 284 284 285 286 286 287
290 289 289 289 289 289 288 288 288 288 288 287 287 287 286 286 285 285 285 284 284 283 283 283 284 284 284 284 284 284 284 284 283 283 283 282 282 281 281 281 280 280 279 278 278 278 277 277 277 276 276 276 275 275 274 274 274 274 275 275 275 276 277 277 277 278 278 279 279 280 280 281 282 282 282 283 283 283 284 284 284 284 285 285 286
290 290 289 289 289 288 288 288 288 288 288 287 287 286 286 285 285 284 284 283 283 283 283 283 284 284 284 284 284 284 284 283 283 283 283 282 281 280 280 279 279 278 277 277 276 276 276 276 275 276 276 276 275 275 275 275 275 274 274 274 274 275 275 276 276 277 277 278 278 278 279 279 280 281 281 282 282 283 283 284 284 284 285 285 285
290 289 289 288 288 288 288 288 288 288 287 287 287 286 285 285 284 284 284 283 283 283 283 283 284 284 284 284 284 284 283 283 283 283 282 281 280 279 279 278 278 277 276 276 276 275 275 275 275 275 275 275 275 275 275 275 275 274 273 273 272 273 273 274 275 275 275 276 276 276 277 277 278 279 280 280 281 282 282 283 284 284 285 285 285
289 288 288 288 288 288 288 288 288 288 287 287 286 285 285 284 284 283 283 283 283 283 283 283 283 284 283 283 283 284 283 283 283 282 282 281 279 278 278 278 277 277 276 276 275 275 275 275 274 274 274 274 274 274 274 273 273 272 271 271 271 272 272 273 273 274 274 274 274 275 276 277 277 278 278 279 280 281 281 282 283 283 284 284 284
289 288 288 288 288 288 288 288 288 287 287 287 286 285 284 284 283 283 283 283 283 283 283 283 283 283 283 283 283 283 283 282 282 282 281 280 279 278 278 277 277 276 276 275 275 275 274 274 273 273 273 273 273 273 273 272 271 271 271 271 271 272 272 272 273 273 273 274 274 275 276 276 276 276 277 278 278 279 279 280 281 281 282 283 283
288 288 288 288 288 287 287 287 287 287 287 286 285 284 284 283 283 282 282 282 283 283 283 283 283 283 283 283 283 283 282 282 281 281 280 279 278 278 277 277 276 276 275 275 275 274 274 273 272 272 272 272 273 273 272 271 271 271 271 272 272 272 272 272 273 273 274 274 275 275 275 276 276 277 277 278 278 279 279 280 280 280 281 282 282
288 288 288 288 287 287 287 287 287 287 286 286 285 284 283 283 282 282 282 282 283 283 283 283 283 283 283 282 282 282 282 281 281 280 279 278 277 277 277 276 276 275 275 275 274 273 272 272 272 272 271 272 273 273 272 272 272 272 273 273 273 273 273 273 273 274 274 274 274 275 275 275 276 276 277 277 278 278 279 279 280 281 281 282 283
288 288 288 288 287 287 287 287 287 287 286 285 284 283 283 282 282 282 282 282 282 283 283 283 282 282 282 282 281 281 282 281 280 279 278 277 277 277 276 276 276 275 275 274 274 273 272 272 272 272 272 273 273 273 273 273 273 273 274 274 274 274 274 274 274 274 274 275 275 275 275 275 275 275 276 276 276 277 277 277 278 279 280 281 283
288 288 288 287 287 287 287 287 287 286 286 285 283 283 282 282 282 282 282 282 282 282 282 282 282 282 282 281 281 280 281 280 279 278 278 277 277 277 276 276 276 276 275 273 273 272 272 272 272 273 273 273 273 273 273 274 274 274 274 274 274 274 275 275 275 275 275 276 276 276 276 275 275 275 275 275 275 276 276 276 276 277 278 279 281
288 288 287 287 287 287 287 287 286 286 285 284 283 282 282 282 281 281 282 282 282 282 282 282 282 282 281 281 280 280 280 280 279 278 277 277 277 277 276 276 276 275 274 272 272 271 271 271 272 273 274 274 274 274 274 275 275 275 276 275 275 275 276 276 276 276 276 276 276 276 276 275 275 275 275 275 275 275 275 275 276 276 276 277 278
288 287 287 287 286 286 287 286 286 285 284 283 282 282 281 281 281 281 281 282 281 281 281 281 281 282 281 280 280 279 279 279 278 278 277 277 277 276 276 276 275 273 272 272 271 271 271 271 271 273 274 274 274 275 275 276 276 276 276 276 276 276 277 276 276 276 276 276 275 275 275 275 275 275 275 275 275 275 275 275 275 275 276 276 277
287 287 287 286 286 286 286 286 286 285 284 282 282 281 281 281 281 281 281 281 281 281 281 281 281 281 281 280 279 279 278 278 278 278 278 277 277 276 276 275 273 272 271 272 272 272 272 272 272 273 274 274 275 276 276 276 276 276 277 277 277 277 277 276 276 276 276 275 275 275 276 276 276 276 276 276 275 275 275 275 275 275 275 276 276
287 287 286 286 286 286 286 286 285 284 283 282 281 281 281 280 281 281 281 281 281 281 281 280 281 281 281 280 279 278 278 278 278 278 278 277 277 276 275 274 273 272 272 272 272 272 272 272 273 274 274 275 276 276 276 276 276 276 276 276 276 276 276 276 276 276 276 276 276 276 276 276 276 276 276 275 275 275 274 274 274 275 275 276 276
287 286 286 286 286 286 286 285 285 283 282 281 281 280 280 280 280 280 280 280 280 280 280 280 280 280 280 280 279 278 278 278 278 278 277 277 277 276 275 275 274 273 272 272 272 272 272 272 273 274 275 275 276 276 276 276 276 276 276 276 276 276 275 275 275 275 275 275 275 275 275 275 275 275 275 274 274 274 274 274 274 274 274 275 276
286 286 285 286 286 286 286 285 284 282 281 281 280 280 280 280 280 280 280 279 279 280 280 279 279 279 279 279 278 278 278 278 277 277 277 277 277 276 276 275 274 272 272 272 272 272 273 273 274 274 274 275 275 275 275 275 275 275 275 275 275 275 275 274 275 275 275 275 275 274 274 274 274 274 274 274 274 274 274 274 274 274 274 274 274
286 286 285 286 286 286 286 284 283 281 281 280 280 279 279 280 280 279 279 279 279 279 279 279 279 278 278 278 278 278 277 277 277 277 277 277 277 277 276 274 273 272 272 272 272 272 273 273 274 274 274 273 273 274 274 274 274 274 274 274 274 274 275 275 275 275 274 274 274 274 274 274 274 274 274 274 274 274 274 274 274 274 274 274 275
286 285 285 285 285 286 285 284 282 281 280 280 279 279 279 279 279 279 279 278 278 278 278 278 278 277 277 277 277 277 277 277 276 276 276 276 275 274 273 272 272 272 272 272 272 272 272 273 274 274 274 274 274 274 274 275 275 275 275 275 275 275 275 275 275 274 274 274 274 274 274 274 274 274 274 274 274 274 274 274 274 274 275 275 275
286 285 285 285 285 285 284 283 281 280 280 279 279 279 279 279 279 279 278 278 278 278 278 277 277 277 277 277 276 276 276 276 275 275 274 273 272 272 272 272 272 272 272 272 272 272 273 274 275 275 275 275 275 274 274 275 275 275 275 275 275 276 276 275 275 274 274 274 274 274 274 274 274 274 274 274 275 275 275 275 275 275 276 276 276
285 285 285 285 285 284 283 282 281 280 280 279 279 278 278 278 278 278 278 277 277 277 277 277 277 276 276 275 274 274 274 275 274 272 271 271 271 272 272 272 272 272 273 273 273 274 274 274 274 274 275 275 275 275 275 275 275 275 275 275 276 276 276 275 275 275 275 274 274 274 274 274 274 275 275 276 277 277 277 276 276 276 276 276 276
285 285 285 284 284 284 282 281 280 280 279 279 279 278 278 278 278 278 278 277 277 277 277 276 276 275 275 274 273 273 274 274 273 271 271 271 272 272 273 273 273 274 274 274 275 274 274 274 274 273 273 273 274 274 274 274 274 275 275 275 276 276 276 276 276 275 275 274 274 274 274 275 276 277 277 277 278 278 278 277 277 277 277 277 277
285 284 284 284 284 283 281 280 280 279 279 279 279 278 278 277 277 277 277 277 276 276 276 276 275 274 274 273 274 274 273 273 273 272 270 271 272 272 273 273 273 274 274 274 274 274 273 273 273 272 272 272 272 272 273 273 273 274 274 275 276 276 276 275 275 275 275 274 274 274 275 276 277 278 278 277 277 278 278 278 278 278 279 279 279
284 284 284 284 283 282 281 280 279 279 279 278 278 278 279 278 277 277 276 276 276 276 276 275 275 274 274 273 273 273 273 273 273 271 270 270 272 272 272 273 273 273 273 273 273 273 273 272 272 271 271 271 271 271 272 272 272 273 273 274 275 275 275 275 275 275 275 274 274 275 275 276 276 277 277 277 277 277 278 279 279 280 280 281 281
284 284 284 283 283 281 280 279 279 279 278 278 278 278 278 278 278 277 276 276 276 276 275 275 275 274 274 273 273 273 273 273 272 270 270 271 272 272 272 272 272 272 273 273 273 273 273 272 272 271 271 271 271 271 271 271 272 272 272 273 273 274 274 274 275 275 274 274 274 275 275 275 276 276 277 277 278 278 278 279 279 280 281 281 282
284 284 284 283 282 281 280 279 279 278 278 278 278 278 277 277 277 277 277 276 275 275 275 275 275 274 274 273 273 273 273 272 272 271 271 271 272 272 272 272 272 272 272 272 272 272 272 272 272 271 271 271 270 270 271 271 271 271 271 271 272 273 273 274 274 274 274 273 274 275 275 276 276 277 277 277 278 278 279 279 280 280 281 281 282
284 283 283 282 281 280 279 279 278 278 278 277 277 277 277 277 276 276 276 275 275 275 275 274 274 274 274 274 273 273 272 272 271 271 271 271 271 271 272 272 273 273 273 272 272 271 271 271 271 271 270 270 270 270 270 270 270 270 270 270 271 272 273 273 274 274 273 273 274 275 276 277 277 277 277 277 277 278 278 279 280 281 281 281 282
283 283 283 282 281 279 279 278 278 278 277 277 277 276 276 276 275 275 275 274 274 274 274 274 274 274 274 273 273 273 272 272 272 272 271 271 271 271 272 272 273 273 272 272 272 272 271 271 271 271 270 270 270 269 269 269 269 270 270 270 270 271 272 272 273 272 272 273 274 275 276 277 277 277 277 277 278 278 278 279 280 280 281 281 281
283 283 282 281 279 279 278 278 277 277 277 276 276 276 276 275 275 274 274 274 274 274 274 273 273 273 273 273 273 273 273 272 272 271 271 271 271 271 272 272 272 272 272 272 271 271 271 271 270 270 270 270 270 269 269 269 269 269 269 269 270 270 271 271 271 271 272 273 274 274 275 276 276 277 277 277 277 278 279 279 280 280 281 281 281
282 282 281 279 278 278 278 277 277 277 276 276 275 275 275 274 274 273 273 273 273 273 273 273 272 272 273 273 273 273 273 272 272 272 271 271 271 271 271 271 271 271 271 271 271 271 271 271 271 270 270 270 270 270 270 269 269 269 269 269 269 270 270 271 271 271 272 272 273 274 274 274 275 276 276 276 276 277 278 279 279 280 280 280 281
281 280 279 278 278 278 277 277 276 276 275 275 275 274 274 274 273 273 273 273 273 273 273 272 272 272 272 272 272 273 272 272 272 272 272 271 271 271 271 271 271 271 271 271 271 271 271 271 271 271 270 270 270 270 270 270 269 269 268 268 269 269 270 270 271 271 271 272 272 273 273 273 274 275 275 275 276 277 278 279 279 279 280 280 281
280 279 278 278 277 277 276 276 276 275 275 274 274 274 273 273 273 272 272 272 272 272 272 272 272 271 271 271 271 272 272 272 271 271 271 271 271 271 271 271 271 271 271 270 270 270 270 271 271 271 270 270 270 270 270 270 270 269 268 268 268 269 269 270 270 271 271 271 272 272 272 273 274 274 274 275 275 276 277 278 279 279 280 280 280
278 278 277 277 277 276 276 276 275 274 274 274 273 273 272 272 272 272 272 272 272 272 272 272 271 271 271 271 270 270 271 271 271 270 271 271 271 271 271 270 270 270 270 270 270 270 270 270 270 270 270 270 270 270 271 271 270 270 269 268 268 268 269 269 270 270 270 271 271 272 272 273 273 274 274 274 275 275 276 277 278 278 279 279 280
277 277 276 276 276 276 276 275 274 274 273 273 273 272 272 271 271 271 271 271 271 272 272 271 271 271 270 270 270 270 270 270 270 270 270 270 271 271 271 270 270 270 270 270 270 270 270 270 270 270 270 270 270 270 271 271 271 270 270 269 269 268 269 269 270 270 270 271 271 272 272 272 273 273 274 274 274 275 276 276 277 277 278 278 278
276 276 276 275 275 275 274 274 273 273 273 272 272 271 271 271 271 271 271 271 271 271 271 271 271 270 270 270 270 270 270 269 269 270 270 270 270 270 270 270 270 270 269 269 269 269 269 270 270 270 270 270 270 270 270 271 271 271 271 270 269 269 269 269 270 270 270 270 271 271 272 272 273 273 273 274 274 274 275 275 276 276 276 276 277
275 275 275 274 274 273 273 273 272 272 272 271 271 271 270 270 270 270 270 270 270 271 271 271 271 270 270 270 269 269 269 269 269 269 270 270 270 270 270 270 270 270 269 269 269 269 269 269 270 270 270 269 269 269 270 270 271 271 270 270 270 270 269 269 270 270 270 270 271 271 272 272 272 272 273 273 274 274 274 274 275 275 276 275 275
275 274 274 273 273 272 272 271 271 271 271 270 270 270 270 270 270 270 270 270 270 270 270 270 270 270 270 270 269 269 269 269 269 269 269 269 270 270 270 270 270 270 269 269 269 269 269 269 270 270 270 270 270 269 269 270 270 270 270 270 270 270 270 270 270 270 270 270 271 271 271 271 272 272 272 273 273 273 273 274 274 274 275 275 274
274 273 273 272 272 271 271 270 270 270 270 270 270 269 269 269 269 269 269 270 270 270 270 270 270 270 270 270 269 269 269 269 269 269 269 269 269 270 270 270 270 270 269 269 269 269 269 269 269 270 270 270 270 270 269 269 270 270 270 270 270 270 270 270 270 271 271 271 271 271 271 271 271 271 272 272 272 272 273 273 273 274 274 274 274
272 272 271 271 270 270 269 269 269 269 269 269 269 269 268 269 269 269 269 269 269 269 269 269 269 269 269 269 269 269 269 269 269 269 269 269 269 269 270 270 270 270 269 269 269 269 269 269 269 269 269 270 270 270 270 269 269 270 270 270 270 270 270 271 271 271 271 271 271 271 271 271 271 271 271 272 272 272 272 272 273 273 273 273 273
271 270 270 269 269 269 268 268 268 268 268 268 268 268 268 268 268 268 269 269 269 268 268 268 268 268 268 268 268 269 269 269 269 269 269 269 269 269 269 269 270 270 269 269 269 269 269 269 269 269 269 269 270 270 270 270 269 269 269 270 270 270 270 270 271 271 272 271 271 271 271 271 271 271 271 271 271 271 271 272 272 272 272 272 272
269 269 268 268 268 267 267 267 267 267 267 267 267 268 268 268 268 268 268 268 268 268 268 268 268 267 267 267 268 268 268 268 268 268 268 268 268 269 269 269 269 269 269 269 269 269 269 269 269 269 269 269 269 269 269 269 269 269 269 269 269 270 270 270 271 271 272 272 272 272 271 271 271 271 271 271 271 271 271 271 271 271 272 272 272
268 267 267 266 266 266 266 266 266 267 267 267 267 267 267 267 268 268 268 268 268 268 267 267 267 267 267 267 267 267 267 267 267 267 267 267 268 268 268 268 268 268 269 269 269 269 269 269 269 269 269 269 269 269 269 269 269 269 269 269 269 269 269 270 270 271 271 271 271 272 272 271 271 271 271 271 271 271 271 271 271 271 271 271 271
266 266 265 265 265 265 265 266 266 266 266 266 266 267 267 267 267 267 267 268 267 267 267 267 267 267 267 267 267 267 267 267 267 267 267 267 267 267 267 267 267 267 268 268 268 268 268 268 268 269 269 269 269 269 269 269 269 269 269 269 269 268 269 269 270 270 270 271 271 271 271 271 272 272 271 271 271 271 271 271 271 270 270 271 271
Wind_Speed
4 3 3 4 5 6 7 8 9 10 11 12 13 14 14 15 16 16 17 17 18 19 19 20 22 23 23 24 26 27 28 30 31 32 34 35 36 37 38 39 40 42 43 44 45 45 46 46 46 45 44 44 43 42 41 39 38 37 36 37 37 36 35 35 40 48 50 45 45 45 42 41 42 41 39 39 37 35 35 36 36 38 39 39 39
4 4 5 6 7 8 9 10 11 12 13 14 16 16 17 18 19 19 19 19 20 21 22 23 24 26 27 28 30 31 33 34 35 37 37 38 38 39 39 40 41 42 43 44 45 45 46 47 48 48 47 47 47 46 45 43 42 41 40 39 39 39 38 38 40 46 51 49 46 47 45 43 44 43 40 40 40 37 37 36 35 36 37 38 39
6 6 7 7 8 9 11 12 14 16 17 18 19 19 20 21 22 22 22 22 23 24 25 26 28 29 30 32 34 35 36 38 38 39 40 40 41 41 42 42 42 42 42 43 43 44 46 47 48 49 50 50 50 49 47 46 44 44 44 42 41 41 40 39 41 45 51 52 48 47 47 45 44 45 42 41 41 40 39 39 37 36 36 36 37
7 7 8 9 11 12 13 15 16 18 19 20 20 21 22 23 23 24 24 24 25 26 27 29 30 32 33 35 37 38 39 40 40 40 40 41 42 43 43 44 44 44 44 44 44 43 44 46 47 48 50 51 53 52 49 48 46 44 45 44 43 43 42 41 42 44 48 53 52 49 47 47 47 46 44 43 43 42 41 41 39 38 37 36 37
8 9 10 11 13 14 15 16 17 19 20 21 22 22 23 24 25 25 25 25 26 27 28 30 31 33 35 37 38 39 40 40 40 41 41 41 41 42 43 44 44 45 46 47 47 47 47 47 47 47 48 50 52 52 51 51 49 46 46 45 44 43 44 43 42 43 46 51 54 52 49 48 48 47 45 44 44 44 43 43 41 40 39 38 37
9 10 12 13 14 15 16 18 19 21 22 23 24 25 26 26 27 27 27 27 27 28 29 31 33 35 36 38 39 39 40 40 40 40 40 40 41 42 43 44 45 47 48 48 49 49 49 49 49 48 47 48 50 51 51 51 52 50 48 46 43 41 42 43 43 43 45 49 52 52 51 49 48 48 47 44 43 45 45 46 45 42 40 40 39
10 12 13 15 16 17 18 20 22 23 24 25 26 27 29 29 30 29 29 28 29 30 32 33 35 36 38 39 39 39 39 39 39 39 40 41 42 44 45 46 47 47 48 48 48 49 48 48 48 47 46 46 47 47 48 49 50 51 49 46 42 39 39 40 40 40 42 46 49 51 51 49 47 47 46 43 42 44 45 46 47 45 43 42 41
12 14 15 16 18 19 21 22 23 25 26 27 29 30 31 32 32 31 30 30 31 33 34 35 36 37 38 39 39 39 39 39 39 39 41 42 44 45 46 47 48 48 48 48 47 47 47 46 45 44 42 42 42 41 40 41 42 45 46 43 41 40 40 40 39 39 40 43 47 49 50 49 47 46 45 42 42 45 45 44 46 48 46 44 43
14 16 17 18 19 21 22 23 24 26 28 29 31 32 33 33 33 31 31 31 33 35 36 37 38 38 39 39 39 39 38 38 39 40 42 43 45 46 47 47 48 48 48 48 47 47 46 44 43 41 40 40 39 37 36 36 36 39 42 42 41 42 43 43 42 41 40 42 45 48 48 49 48 45 43 42 41 43 44 41 44 48 49 47 47
16 17 19 20 21 21 21 23 25 27 28 30 31 32 33 33 32 31 31 33 35 36 36 37 38 39 39 39 39 38 38 38 39 41 42 44 45 46 47 47 47 48 48 48 47 46 45 44 43 41 40 39 39 37 35 33 32 33 35 36 37 38 40 41 41 40 39 40 42 43 44 47 48 45 42 42 40 39 40 40 42 46 47 47 50
18 19 20 21 20 20 20 23 25 27 28 30 31 32 32 31 31 31 32 34 35 36 37 37 38 38 39 39 39 38 38 39 40 41 42 43 44 45 46 47 46 47 47 47 47 45 44 44 43 42 40 39 38 37 35 33 33 33 33 32 32 33 34 37 39 40 39 39 41 41 42 45 47 44 41 39 37 35 36 36 37 41 43 44 47
20 21 20 20 19 19 21 23 25 27 28 29 30 31 31 30 30 31 34 35 35 36 36 37 38 38 38 38 38 38 38 39 40 41 42 43 43 43 44 45 45 45 45 45 45 44 44 43 42 41 39 38 37 36 35 34 33 32 32 31 30 30 30 33 35 37 38 40 43 45 45 46 47 46 42 40 38 35 34 35 35 36 38 39 42
21 20 19 19 19 20 22 24 26 27 28 29 30 30 30 30 31 33 34 35 35 35 36 36 37 37 37 37 37 37 38 39 40 41 42 43 42 42 42 44 44 44 44 43 43 43 42 41 40 39 38 37 36 36 35 34 32 30 30 29 28 28 28 29 30 32 35 38 42 47 49 47 47 48 45 40 39 39 37 37 36 34 35 37 40
21 20 19 19 20 21 23 25 26 28 29 29 30 30 30 30 32 33 34 34 34 35 35 36 36 36 36 36 37 37 38 39 40 41 42 42 41 41 42 43 43 43 42 42 42 41 40 39 38 37 36 34 34 33 32 32 31 30 29 28 28 27 26 27 27 28 30 33 38 44 48 46 45 47 45 39 38 40 39 39 38 37 38 39 41
20 20 20 21 22 23 25 26 27 29 29 30 30 30 30 31 32 33 34 34 34 34 35 35 35 35 35 36 37 38 38 39 40 41 42 41 40 40 41 42 42 42 42 41 40 39 38 36 35 35 33 32 30 29 29 29 29 31 31 31 30 29 28 27 27 27 29 31 33 37 41 41 41 44 45 42 40 41 41 41 42 42 42 43 45
21 21 22 23 23 24 26 27 28 29 30 30 30 30 30 31 32 33 33 33 33 34 34 34 35 35 35 36 37 38 38 38 39 41 41 40 40 40 40 41 41 41 41 40 39 37 35 33 32 32 33 32 30 28 28 28 30 33 35 35 35 33 33 31 28 27 28 30 32 34 37 37 36 38 40 39 37 37 37 39 40 42 44 46 48
23 23 24 24 25 25 26 27 29 30 30 30 30 30 31 32 32 33 33 33 33 33 34 34 34 35 36 36 38 39 39 38 39 40 40 38 38 38 39 40 40 39 39 38 36 34 32 30 30 31 33 32 31 30 28 30 33 35 37 37 37 36 36 34 32 30 29 30 31 33 34 35 35 35 36 36 35 34 35 38 39 37 39 43 46
25 25 26 26 25 26 27 28 29 30 30 30 30 30 31 31 32 32 32 33 33 33 33 34 34 34 35 36 37 38 39 39 39 39 38 36 35 37 38 38 39 38 37 35 33 31 30 30 29 30 32 32 31 31 31 32 34 35 36 37 38 38 37 36 36 35 33 33 33 33 34 34 34 34 35 35 34 31 33 40 41 39 39 41 44
27 27 27 27 26 26 27 28 30 30 31 31 30 30 31 31 32 31 31 32 32 32 33 34 34 35 35 36 37 37 39 39 38 38 37 35 33 34 36 37 38 37 34 33 32 32 33 33 32 31 31 31 31 31 30 29 31 33 34 36 39 39 38 37 37 38 37 36 36 37 38 38 37 37 38 38 37 34 34 37 39 39 42 45 44
28 28 28 27 27 27 27 29 30 31 31 31 30 30 31 31 31 31 31 31 31 32 32 33 35 35 35 36 36 36 37 38 37 36 35 33 32 32 33 35 35 35 34 34 36 37 37 37 36 34 32 31 31 31 29 27 29 31 33 36 39 40 39 38 38 38 37 37 37 38 40 40 39 40 41 42 41 39 38 38 38 38 41 46 50
29 29 29 27 27 27 28 29 30 31 31 31 31 31 31 31 31 30 30 30 31 31 32 33 35 36 36 36 36 35 35 36 36 35 33 31 30 29 30 32 32 33 35 36 37 38 38 39 40 37 34 33 32 30 29 28 29 31 34 37 39 38 38 38 37 36 36 38 39 40 41 42 42 43 44 45 44 42 40 39 39 38 39 44 49
30 29 29 27 27 27 27 28 30 31 31 31 31 31 31 30 30 30 29 30 31 31 32 33 35 36 36 36 35 34 33 33 33 33 31 30 28 26 27 28 28 30 34 36 37 39 40 41 41 38 35 34 32 31 31 31 32 34 35 35 36 36 36 37 37 37 38 39 40 42 43 43 45 45 45 45 45 43 42 41 39 39 39 42 45
30 30 28 27 27 27 27 29 30 31 30 30 31 31 30 29 29 29 29 30 31 31 32 33 34 36 37 36 35 33 31 30 30 30 30 29 28 27 26 26 26 28 33 36 39 41 42 42 40 38 37 36 35 34 35 35 35 36 36 36 36 35 35 36 37 37 39 40 42 45 46 46 46 46 46 45 45 43 42 42 41 39 39 41 43
31 30 28 27 27 27 28 29 30 30 30 30 31 30 29 29 28 28 28 29 30 31 32 33 34 36 37 38 36 33 31 29 28 27 28 28 27 27 27 27 28 29 32 36 39 40 41 41 40 39 38 37 36 35 35 36 36 36 35 34 33 33 34 36 37 38 41 43 45 47 47 45 45 45 45 44 44 43 42 42 42 41 41 41 43
31 29 28 28 28 28 29 30 30 29 29 30 30 29 29 29 28 27 27 28 30 31 32 32 34 35 37 38 37 34 31 28 27 26 25 25 25 26 27 29 31 31 33 36 37 38 38 38 38 37 37 37 38 37 36 36 36 35 34 33 33 34 35 37 38 39 42 44 45 45 46 44 44 44 43 42 42 43 42 42 41 40 40 40 42
31 29 29 29 29 29 30 29 29 29 29 30 29 29 28 28 28 27 27 28 29 30 31 32 33 34 35 36 36 34 30 27 26 25 25 25 26 28 30 32 34 34 35 37 38 37 36 36 37 37 37 36 36 36 36 36 36 34 33 33 33 33 34 35 37 39 41 42 42 43 44 43 42 41 40 40 42 42 42 42 41 39 38 39 40
32 30 29 29 29 30 30 30 29 29 29 29 28 28 27 27 27 27 27 27 29 30 30 31 32 33 34 34 33 32 30 27 26 26 26 27 29 31 33 35 36 36 37 38 38 37 37 38 38 38 37 36 35 34 35 35 33 32 31 30 29 30 30 31 33 35 37 39 40 40 40 40 39 39 38 39 40 40 38 39 39 39 38 38 40
32 30 29 29 29 29 30 30 29 29 28 28 27 27 26 26 26 26 26 27 28 29 29 30 30 31 32 33 32 31 29 27 26 26 27 29 30 32 34 35 36 37 37 37 38 38 39 38 36 34 33 34 35 34 34 32 30 29 28 27 27 27 28 29 29 30 32 34 35 36 37 36 36 36 36 37 37 37 36 36 38 39 39 39 40
32 30 30 29 29 29 30 29 29 29 28 28 27 26 25 25 26 26 24 25 27 28 29 30 30 29 29 29 28 29 29 28 26 24 24 26 28 30 32 33 35 36 37 37 37 37 37 36 34 33 32 32 32 32 31 30 29 28 25 25 26 27 27 27 28 27 28 29 31 33 33 33 33 33 34 35 37 36 36 37 39 40 41 42 44
32 31 30 29 29 29 30 29 29 29 28 28 27 26 24 23 24 26 25 25 25 27 28 29 27 25 25 25 24 25 26 26 24 22 22 24 27 28 30 31 33 35 35 35 35 35 35 34 33 32 32 31 30 30 29 29 30 29 26 25 26 27 26 27 26 25 26 28 30 31 31 30 31 31 32 35 37 36 35 37 39 41 42 44 46
32 31 30 29 29 29 30 29 29 29 28 28 28 27 25 22 21 22 25 26 25 24 25 26 24 21 20 22 24 23 23 23 22 21 22 24 27 28 29 30 32 32 33 33 32 31 31 31 30 29 28 28 28 28 28 29 30 30 29 28 28 27 26 26 26 25 26 28 30 30 29 29 29 30 32 35 36 36 36 37 39 40 43 45 46
31 29 29 29 29 29 29 29 29 28 28 27 27 28 28 25 22 19 20 23 25 25 24 23 22 21 19 20 22 23 23 23 21 20 21 25 27 27 27 29 29 29 28 28 28 27 27 27 27 27 27 27 28 28 28 28 29 29 29 29 29 27 27 27 26 24 24 28 30 30 29 29 30 31 32 34 36 37 38 38 39 40 40 41 40
30 29 29 28 28 28 29 29 29 28 27 27 27 27 27 28 27 23 20 19 21 23 24 23 22 21 20 19 20 21 22 22 20 19 21 24 25 26 26 27 27 27 27 27 27 27 27 28 28 28 27 28 28 28 29 29 29 28 28 28 29 28 27 26 25 24 23 26 29 30 30 30 31 32 33 34 35 36 37 38 38 37 36 35 34
29 29 28 27 27 28 28 28 28 27 27 27 27 26 26 26 27 28 25 22 20 19 20 21 22 22 22 21 20 21 21 20 19 19 21 23 24 25 25 24 24 24 25 26 27 27 28 29 29 29 29 28 28 28 28 28 29 29 28 28 28 28 27 26 25 24 25 27 28 28 28 29 30 31 33 34 34 35 36 37 36 33 32 32 31
29 28 27 27 27 28 28 28 28 27 26 26 26 26 26 26 26 27 27 27 25 22 19 18 18 20 23 24 22 21 21 20 18 18 20 22 23 24 24 23 23 23 24 25 26 27 28 30 30 30 30 29 28 28 28 28 28 29 29 30 30 29 28 27 26 26 27 29 29 27 28 29 30 30 31 32 32 33 33 33 32 31 30 30 29
28 27 27 27 28 28 28 28 27 27 26 26 25 25 26 26 26 26 26 26 26 25 23 20 17 16 19 21 22 20 19 18 18 17 17 19 22 23 24 24 24 24 24 25 25 26 27 29 29 30 30 30 29 28 28 28 28 29 29 30 30 30 29 28 27 27 28 29 29 29 30 30 31 30 30 31 31 32 30 29 28 27 27 26 25
28 28 27 27 28 28 28 27 27 27 26 25 25 25 25 25 25 26 25 25 25 25 24 22 20 17 16 17 20 20 18 17 17 16 15 16 19 21 22 22 23 23 24 24 25 26 27 28 29 29 29 29 29 28 28 28 28 28 29 29 30 30 29 28 28 27 27 28 28 29 30 30 30 30 29 29 29 29 27 26 24 23 23 24 23
28 28 27 27 28 28 28 27 26 26 26 25 25 25 25 25 25 25 25 25 24 24 23 22 21 20 18 17 19 20 19 17 16 14 14 15 17 18 19 20 21 23 24 24 25 26 26 27 28 28 28 28 28 28 28 28 28 28 29 30 30 29 29 29 28 27 27 27 27 27 28 28 28 28 26 26 26 25 23 23 23 21 21 21 21
28 27 27 27 28 28 28 27 26 26 25 25 25 25 25 24 24 24 25 24 24 23 22 21 20 19 19 18 18 19 19 18 16 16 16 17 18 19 20 20 21 22 23 24 24 25 26 26 27 28 28 28 28 27 27 27 28 28 29 30 31 30 30 29 29 28 28 27 27 26 26 26 26 26 25 24 23 22 21 20 20 19 19 20 20
27 27 27 28 28 28 28 27 26 26 25 25 25 25 25 24 23 23 24 24 23 22 22 21 19 18 18 18 18 19 20 19 17 17 17 18 18 18 19 20 21 21 22 23 24 25 25 26 26 27 27 28 28 28 28 28 28 28 29 30 32 32 31 30 29 29 28 28 27 26 25 25 24 24 24 23 21 21 19 18 17 17 16 17 17
27 28 28 28 28 28 28 28 27 25 25 25 25 24 24 23 23 23 23 23 23 22 21 20 19 17 17 17 17 18 19 18 17 16 16 17 17 18 18 19 20 21 22 23 24 25 25 25 26 26 27 28 28 28 28 28 28 28 29 30 31 33 33 32 31 29 28 28 27 26 25 24 23 23 23 22 21 19 18 17 15 14 14 14 14
27 28 28 28 29 29 29 28 26 26 25 25 24 24 23 22 22 22 23 22 22 21 21 20 18 16 16 17 17 17 18 18 17 16 16 16 16 16 17 18 19 20 21 22 23 24 25 25 25 26 26 27 28 28 29 28 28 28 29 29 31 33 34 33 32 30 29 28 27 26 24 23 23 22 21 20 19 18 17 16 14 13 13 13 12
28 28 28 29 29 29 29 27 26 26 26 25 24 23 23 22 21 22 22 22 21 21 20 19 18 16 15 16 17 17 17 17 17 17 16 16 16 16 16 17 18 19 20 21 21 23 24 24 25 25 25 26 26 27 28 28 27 28 29 29 30 32 33 33 32 31 30 29 27 26 24 23 22 21 20 19 18 17 16 15 13 12 12 12 12
28 29 29 30 30 29 28 27 26 26 25 25 24 23 22 22 21 21 21 21 20 20 19 19 18 17 16 16 16 17 18 17 17 17 17 16 16 16 16 17 18 19 19 20 20 21 22 23 24 24 24 24 24 25 26 26 26 26 28 29 30 31 32 32 31 30 30 29 27 25 24 22 22 21 20 19 17 17 16 15 13 12 11 11 11
29 30 30 30 30 29 28 27 26 25 25 24 24 22 22 21 21 21 21 20 20 19 19 18 18 18 18 17 17 17 18 18 18 17 17 17 17 17 17 17 18 19 19 20 20 21 22 23 23 23 24 24 24 24 25 25 25 25 25 26 27 29 30 30 30 28 27 27 27 25 24 22 22 21 20 19 18 17 16 14 13 11 10 10 10
30 30 30 30 29 28 27 26 26 26 25 24 23 22 21 21 21 21 20 20 19 19 19 18 18 19 19 18 18 18 18 19 19 18 18 18 18 18 18 18 18 19 19 20 20 21 21 22 23 23 24 24 24 24 24 25 25 25 24 24 25 26 27 28 28 27 26 26 25 25 24 22 21 20 19 18 17 16 15 14 13 11 10 9 9
31 31 30 30 29 28 26 26 26 26 25 23 22 22 21 21 21 20 20 19 19 19 19 19 19 19 19 19 19 19 19 19 19 19 19 19 19 20 20 20 19 20 19 20 20 21 22 22 23 23 23 24 24 24 24 24 24 25 24 24 24 24 25 26 26 26 25 25 24 23 23 22 21 19 18 17 16 16 15 14 13 12 10 9 8
31 31 30 29 28 27 26 25 25 25 24 23 22 21 21 21 21 20 19 19 19 19 19 19 19 19 19 19 19 20 20 20 20 20 20 21 21 21 21 21 21 21 21 20 20 21 22 22 23 23 23 24 23 24 24 24 24 24 25 24 24 23 23 23 24 24 24 24 23 22 22 21 20 19 18 17 17 17 16 14 13 12 11 9 8
31 31 30 29 28 26 25 24 24 24 23 22 22 21 21 21 20 20 19 20 20 20 20 20 20 20 20 20 20 20 21 21 21 21 21 21 21 22 22 22 22 22 22 22 21 22 22 23 23 23 23 23 24 24 24 24 24 24 24 24 24 23 22 22 22 22 22 22 23 22 21 20 19 18 18 17 17 16 15 15 14 12 10 9 8
30 29 28 27 26 25 24 24 24 23 22 22 22 21 21 20 20 19 19 20 20 20 20 20 21 20 20 20 20 21 21 21 21 22 22 22 22 23 23 23 23 23 23 23 23 23 23 23 23 23 23 24 23 23 23 24 24 24 24 23 23 23 22 21 20 20 20 20 21 21 21 19 18 17 17 17 17 16 16 15 14 12 11 10 9
27 26 25 25 24 23 23 23 23 22 22 22 21 21 21 20 20 19 19 20 20 19 20 20 20 20 20 21 21 22 22 22 22 22 22 22 22 23 23 24 24 24 24 24 24 23 24 24 24 24 24 24 24 23 23 23 23 23 23 23 22 22 22 20 19 19 19 18 18 19 19 18 18 17 16 16 16 16 15 14 13 12 12 11 10
Wind_Direction
212 232 261 286 299 307 312 315 317 320 323 325 325 327 327 325 324 322 320 319 318 317 318 319 319 319 319 320 320 319 319 318 318 317 315 314 314 313 312 311 310 310 309 309 308 307 307 305 304 303 302 299 297 295 293 291 290 288 286 285 283 282 281 281 282 285 287 287 287 288 290 291 290 290 291 291 291 292 291 289 287 285 283 281 278
235 260 276 287 297 305 311 315 319 323 326 328 328 328 327 327 326 324 323 322 320 321 321 321 321 321 321 321 321 321 320 320 318 317 316 314 313 312 311 310 309 308 307 307 307 307 306 305 304 305 304 302 300 298 296 293 291 289 286 284 282 280 280 279 280 282 284 285 285 286 287 287 288 288 290 291 291 291 289 288 289 288 286 284 281
250 264 277 291 307 318 322 322 323 324 325 325 325 325 326 326 325 324 323 322 322 322 322 322 322 322 322 322 321 321 320 319 318 317 316 315 314 313 312 311 310 309 308 306 305 305 304 304 303 304 303 302 301 300 298 296 294 291 288 285 282 280 278 278 278 280 282 283 284 284 284 284 284 286 288 289 290 291 290 289 289 288 287 286 283
256 273 291 307 318 321 321 320 319 320 321 322 323 323 323 324 323 323 321 320 320 320 320 321 321 321 321 321 320 319 319 318 318 317 316 316 315 314 313 313 312 311 309 308 306 304 302 300 299 299 299 298 297 298 298 297 296 293 290 287 284 282 279 276 275 276 279 281 282 282 283 283 282 283 284 286 287 288 289 289 288 287 287 286 285
276 293 304 311 313 313 314 315 317 319 321 322 322 321 321 321 321 320 318 317 317 317 317 317 318 318 318 318 318 317 317 317 317 317 317 316 315 314 314 313 312 311 310 309 307 305 303 300 297 295 293 292 291 292 294 295 295 294 292 289 287 285 282 279 276 275 276 278 279 281 282 282 282 281 281 283 285 286 286 287 287 287 286 286 286
290 300 303 303 305 308 313 316 319 320 320 320 320 319 319 319 319 317 316 314 313 314 315 315 316 316 316 316 316 316 317 317 317 317 316 316 315 315 314 313 312 311 310 309 307 306 304 302 299 297 295 292 289 288 289 289 290 291 292 292 291 289 285 282 279 277 275 275 276 279 280 281 283 282 281 281 282 283 284 284 285 286 287 287 286
290 295 296 300 305 311 315 317 318 318 318 317 317 316 316 316 316 315 313 311 311 312 313 314 315 315 316 316 316 316 317 317 317 317 317 317 317 317 316 315 313 312 310 308 306 305 303 301 300 299 298 295 293 291 290 289 288 287 288 290 292 291 289 286 284 281 279 277 277 277 279 280 281 282 282 282 281 280 281 284 285 285 286 287 286
286 291 295 301 306 310 312 313 314 314 313 313 312 312 312 312 312 311 310 309 311 312 314 314 315 315 316 316 316 317 317 318 319 319 320 320 320 319 318 316 314 312 310 308 306 304 303 302 301 301 300 299 297 295 292 290 288 286 285 287 288 287 286 284 283 282 281 281 279 279 280 281 281 281 282 283 281 278 278 282 284 283 284 285 285
283 287 292 297 300 302 305 307 309 309 309 309 308 308 308 308 309 308 308 309 311 312 313 314 315 316 316 316 317 317 318 319 321 322 322 322 321 320 318 317 315 313 311 310 308 307 306 306 305 305 304 303 300 297 293 289 287 284 283 283 283 284 284 284 283 283 282 283 282 282 283 283 282 283 282 282 281 279 278 280 280 279 281 284 283
280 283 286 289 292 296 301 304 306 306 306 306 305 305 305 306 305 305 307 309 311 312 313 314 315 316 316 317 317 318 319 321 323 324 324 323 322 321 320 318 317 315 314 312 311 311 311 310 310 309 308 306 304 302 299 294 290 285 283 282 281 281 282 283 283 283 283 283 283 285 285 284 283 283 282 281 281 281 279 279 279 278 279 281 280
276 278 282 286 289 294 300 304 305 305 305 305 304 304 303 303 303 304 307 309 310 312 313 314 315 316 317 317 317 317 319 322 323 323 324 324 323 323 321 320 318 316 315 314 314 313 313 312 311 310 309 308 307 305 301 297 293 289 285 282 279 276 276 276 278 279 280 280 279 279 279 279 280 282 283 284 284 283 282 282 281 279 278 279 279
273 276 281 284 287 291 297 304 306 305 305 305 304 303 301 300 302 304 307 309 310 312 314 314 316 316 316 317 316 317 320 322 323 323 324 324 324 324 322 319 317 316 315 315 314 313 313 312 311 311 311 311 310 308 306 303 300 297 292 286 280 275 272 272 274 275 275 276 275 274 272 273 275 277 279 281 282 283 283 282 280 278 276 277 277
272 275 279 281 282 287 296 304 308 307 306 306 304 302 301 301 303 305 307 309 310 312 313 314 315 316 316 316 316 318 321 322 323 323 323 325 326 324 321 318 317 316 315 314 314 313 313 313 313 314 315 315 315 316 315 313 311 308 303 298 292 287 282 277 275 273 272 271 271 270 271 273 275 276 278 280 281 280 279 278 278 276 274 273 274
271 274 277 279 278 284 296 305 308 308 308 307 304 302 301 301 304 306 308 309 311 312 313 314 315 316 316 316 316 318 321 322 323 324 324 326 326 324 320 318 316 315 315 314 313 313 313 314 315 316 317 318 321 323 322 319 314 308 304 300 297 295 291 286 282 279 277 274 271 270 270 271 272 273 274 275 275 275 275 274 274 275 273 273 273
271 274 276 276 276 284 297 306 309 309 309 307 304 301 301 302 305 307 308 310 311 312 314 315 315 315 315 316 317 319 322 323 324 324 325 327 327 324 320 318 316 315 315 314 312 312 313 315 317 318 320 322 325 326 324 318 310 305 303 304 303 301 298 295 290 284 283 282 281 280 280 278 277 276 275 274 275 275 276 274 273 272 272 272 271
272 274 273 273 277 287 299 305 308 309 309 306 303 300 301 303 306 307 308 310 311 313 314 315 315 315 315 317 318 319 322 324 325 325 326 328 327 324 320 317 316 314 313 312 311 312 314 316 319 320 320 322 326 328 324 313 304 303 304 306 306 304 303 301 294 285 282 282 280 281 283 283 283 282 281 281 281 281 282 281 277 274 272 272 271
272 272 272 272 278 289 299 305 307 308 307 305 301 300 302 304 306 307 308 310 311 312 313 314 314 315 316 318 319 320 323 325 326 326 327 328 326 322 319 316 314 312 311 311 312 313 314 317 320 320 318 320 325 327 318 305 299 301 302 302 302 301 301 301 298 291 289 287 282 281 282 283 283 281 280 280 279 279 280 278 274 273 274 272 270
271 270 270 273 281 292 299 304 306 307 306 303 300 300 303 305 307 307 308 309 311 312 313 314 314 315 317 319 320 322 324 326 326 326 326 326 324 320 317 314 313 312 312 313 313 313 314 316 320 320 317 319 321 314 305 299 297 297 297 297 298 297 298 301 302 301 301 298 295 295 295 293 291 288 287 287 285 282 277 272 269 272 275 273 270
268 268 270 275 284 293 300 303 305 306 305 302 300 302 304 306 306 307 307 308 310 312 313 313 313 315 317 319 321 323 324 326 326 325 325 324 321 317 315 313 312 313 314 315 316 317 317 318 321 320 318 318 316 308 302 301 299 296 296 295 293 293 297 303 303 302 301 301 301 302 301 299 297 294 294 294 292 289 284 278 275 272 271 269 269
266 267 270 276 286 294 299 302 304 305 303 301 301 303 305 306 305 305 306 307 309 311 312 313 313 315 317 319 321 324 324 325 326 324 323 321 319 316 313 312 313 315 318 320 318 317 316 316 317 318 319 318 315 310 309 308 302 300 299 297 294 296 301 304 302 301 300 300 300 299 297 296 295 294 293 293 291 289 286 284 281 276 271 267 265
265 267 271 278 287 294 298 301 303 303 302 300 301 303 305 304 303 304 305 306 309 310 312 312 313 314 317 319 321 324 324 325 324 323 321 319 318 316 314 315 318 319 318 316 313 312 312 312 312 315 318 318 315 312 311 309 304 301 300 298 298 300 302 301 300 300 298 296 295 294 293 293 293 292 291 290 289 288 285 283 281 278 275 270 265
265 267 272 279 288 293 297 301 302 302 300 300 300 302 303 302 301 303 304 306 309 310 311 312 312 313 315 318 320 323 324 324 323 322 320 319 320 319 318 319 319 315 310 309 309 310 310 310 310 313 317 318 316 311 308 307 305 302 298 296 296 296 296 295 295 294 293 293 293 294 295 296 296 294 292 290 288 287 285 283 280 278 275 271 268
266 268 273 282 289 293 297 300 301 300 299 299 300 301 301 300 300 302 304 306 308 309 310 311 312 313 314 316 319 322 322 323 323 322 322 322 323 325 324 322 320 314 309 309 309 309 309 310 312 316 318 316 312 307 304 304 302 298 294 292 292 293 293 292 292 293 294 296 297 298 298 299 298 297 294 292 291 289 287 284 282 279 276 273 271
267 270 276 284 291 294 297 299 299 298 297 298 299 300 300 299 299 301 304 306 307 308 310 311 311 312 314 315 318 320 322 324 326 325 325 325 327 329 328 326 326 320 311 308 308 308 309 309 309 311 312 309 305 302 300 299 298 297 295 294 294 295 296 297 298 299 299 298 298 298 298 298 298 298 298 297 296 294 292 288 285 281 276 274 271
269 272 278 286 291 292 295 297 297 296 297 298 299 300 299 298 299 301 303 305 306 307 309 310 311 312 313 315 317 319 323 327 329 328 328 327 327 329 330 331 331 324 314 310 310 308 307 305 304 305 306 305 306 306 303 301 301 301 301 299 299 299 299 300 301 301 300 299 299 298 298 299 299 299 300 299 297 295 293 291 288 284 280 278 275
271 274 280 286 289 291 294 296 296 295 296 297 298 298 298 298 299 301 303 304 305 306 307 309 310 312 313 314 316 320 326 331 332 330 330 329 330 334 335 334 331 325 317 315 314 311 307 306 306 305 305 305 306 304 302 302 303 303 303 303 303 303 303 303 303 302 302 301 301 300 301 301 302 301 301 299 296 294 293 292 290 287 283 281 279
272 274 280 285 287 290 294 294 294 295 295 296 297 296 296 297 298 300 303 303 304 305 307 308 310 311 312 313 316 321 327 333 334 333 334 335 336 337 334 329 325 321 318 317 315 311 308 308 308 308 307 307 307 306 306 307 308 309 310 311 311 311 311 309 307 306 304 303 303 302 302 302 302 301 299 297 295 295 294 293 290 288 286 282 279
272 275 280 284 286 289 292 292 292 293 294 295 294 294 294 295 296 299 301 302 302 304 306 307 309 311 312 315 320 324 328 333 336 337 337 337 334 330 325 322 320 320 319 318 315 312 311 311 313 313 312 312 313 315 316 316 316 315 316 317 319 321 321 318 314 311 309 308 305 303 302 301 300 299 298 297 297 298 298 295 291 289 287 283 278
271 275 280 283 286 289 290 291 292 293 293 294 293 293 294 295 296 298 299 299 301 303 305 307 310 313 316 318 321 321 324 331 336 336 334 331 325 321 321 322 322 322 322 322 320 319 319 319 319 318 316 315 316 317 317 317 316 315 316 318 322 325 327 325 319 315 314 313 309 305 303 301 302 304 305 303 304 305 303 298 293 290 287 281 275
270 275 279 283 286 288 289 289 291 292 293 294 293 292 293 294 297 300 301 301 302 305 306 309 312 314 314 314 313 315 320 326 329 332 331 324 319 321 325 326 325 325 326 326 326 325 324 323 321 319 318 317 318 318 317 316 314 314 315 318 321 326 331 330 324 319 318 317 313 309 306 305 308 312 311 308 309 310 308 303 297 292 287 281 275
270 274 278 282 284 286 287 287 289 291 292 293 294 295 295 293 294 298 300 301 302 301 302 305 306 305 306 307 309 313 318 320 325 330 328 318 318 325 330 328 328 330 331 330 330 330 328 325 323 322 320 320 321 321 319 317 315 315 317 318 319 325 332 334 330 324 322 322 318 314 311 310 311 312 311 309 308 309 310 309 304 299 293 286 279
270 274 278 280 281 283 284 285 287 289 290 292 293 295 297 297 295 294 295 297 299 298 299 300 299 299 301 304 308 313 316 319 325 328 320 316 321 329 331 329 330 332 333 334 336 338 338 336 335 333 330 329 327 326 323 321 320 320 321 322 324 328 333 336 333 327 326 326 323 318 316 314 313 312 312 311 309 307 308 308 306 304 303 295 284
272 276 277 279 280 281 282 283 286 287 289 291 292 293 296 298 300 299 296 293 293 294 297 298 297 297 299 302 306 311 315 318 323 321 316 318 324 329 330 331 332 332 335 338 341 345 348 348 346 344 340 336 333 330 328 327 326 326 327 328 328 330 333 335 333 329 329 329 325 321 319 318 317 315 314 313 311 308 306 305 304 306 306 299 284
274 276 277 279 280 280 280 281 284 286 287 289 290 292 294 297 299 301 301 298 293 289 289 292 294 297 299 303 308 311 314 318 320 316 316 321 326 328 330 332 332 334 340 345 348 351 354 354 353 352 348 344 340 336 334 333 333 332 332 332 331 331 333 334 332 332 332 330 324 321 322 321 320 318 315 313 312 309 306 305 305 306 308 303 289
274 276 277 279 278 278 278 279 282 284 285 287 289 291 294 296 297 299 301 301 300 297 293 290 290 294 298 303 308 313 316 318 316 314 318 323 326 327 330 333 334 340 347 351 352 355 356 355 356 354 351 348 347 344 341 341 339 338 337 336 335 334 334 334 334 334 333 329 324 321 319 317 315 314 312 310 309 307 306 307 307 305 307 307 298
276 277 278 278 277 277 277 278 280 282 284 286 288 290 292 294 296 296 297 298 299 300 300 299 296 293 295 299 304 308 311 313 312 315 322 326 327 329 333 337 341 346 350 352 353 355 357 356 355 354 352 350 350 349 348 348 346 344 343 341 338 337 336 337 337 336 332 329 326 323 319 314 312 312 311 309 307 305 304 306 306 304 306 309 304
276 277 277 277 276 275 276 278 279 281 283 285 287 289 290 292 292 293 295 296 296 298 299 301 301 299 296 295 298 302 306 308 310 317 325 327 326 329 335 340 345 348 352 355 355 355 357 357 355 353 352 351 350 349 350 352 352 351 348 345 342 339 339 339 338 336 332 328 326 324 321 318 315 314 314 313 310 307 306 307 304 300 301 307 307
274 275 274 274 273 274 275 277 278 280 282 284 285 287 288 289 289 291 292 293 294 296 297 300 302 303 303 301 300 303 307 308 309 315 324 327 328 332 339 344 348 350 353 356 356 356 356 356 356 355 353 350 349 350 350 352 355 355 354 350 347 343 341 339 337 336 334 331 328 326 325 323 321 319 319 319 316 313 313 314 311 303 298 302 307
272 273 272 272 272 273 274 275 276 278 280 282 283 285 286 286 287 289 289 291 292 293 295 298 301 303 304 305 304 305 307 310 313 320 328 332 334 337 341 345 348 350 352 354 355 356 356 356 356 356 354 351 349 350 350 351 354 357 357 356 352 348 345 342 340 338 336 334 331 330 329 327 326 325 324 324 322 321 320 320 318 313 307 304 306
271 271 270 270 271 272 272 273 274 275 277 279 280 282 283 284 285 286 287 288 290 292 293 296 299 300 301 303 304 304 306 311 318 324 328 330 332 334 338 342 344 347 348 350 352 354 355 356 356 357 357 355 352 351 351 352 354 357 359 358 356 353 350 347 344 342 339 336 335 334 333 332 331 329 328 327 325 325 326 325 323 320 316 311 304
270 269 269 269 270 271 272 272 273 274 275 277 278 279 280 281 282 284 285 286 288 290 292 294 297 298 298 299 299 301 304 308 314 318 321 324 326 329 333 337 340 342 344 346 348 351 353 354 355 356 358 358 355 353 352 353 354 356 357 358 357 356 354 351 348 345 342 340 339 338 337 336 335 334 333 331 328 326 328 330 330 327 322 317 308
269 269 269 269 270 270 271 271 272 272 273 275 276 277 278 279 280 281 283 285 287 289 291 293 294 295 294 294 294 295 297 301 305 308 312 315 318 322 327 330 334 337 339 342 344 346 348 351 353 354 357 358 357 355 354 355 355 355 356 357 359 357 355 353 350 346 344 342 342 341 339 338 338 338 338 336 333 331 331 332 335 338 334 326 317
269 268 269 269 269 269 269 269 269 270 272 274 274 274 275 277 278 280 282 284 286 288 290 292 293 292 290 288 288 289 291 294 297 300 304 307 311 315 320 324 327 331 334 337 339 341 343 345 348 350 353 355 356 355 354 354 356 357 357 357 359 359 357 353 351 349 346 343 342 342 342 342 342 342 343 341 339 338 337 336 337 343 345 341 333
267 267 267 267 267 267 267 267 267 268 270 271 271 273 274 275 277 279 281 283 285 287 289 291 293 292 290 286 284 285 287 289 291 295 298 302 306 310 314 317 320 324 328 332 334 336 338 340 342 345 348 350 352 353 353 353 356 359 359 358 359 0 358 355 353 352 349 346 344 345 346 347 349 349 348 348 347 346 346 346 345 347 349 350 346
266 266 267 267 266 265 265 265 266 267 267 268 269 271 272 274 276 278 280 281 284 286 289 290 292 292 291 288 286 285 286 287 289 292 296 299 303 306 309 311 314 318 322 326 329 331 333 335 336 339 343 345 347 349 352 353 354 358 0 360 359 0 360 356 353 354 353 350 349 349 350 352 354 353 353 354 354 354 353 353 353 353 355 356 353
267 266 266 265 264 264 264 263 263 264 265 266 268 269 270 272 274 276 278 281 283 285 287 289 290 290 290 290 289 288 288 288 289 291 294 297 300 303 305 307 310 313 317 321 323 325 328 330 332 334 338 341 343 345 348 350 351 354 358 359 359 0 360 357 354 355 356 356 355 354 353 354 356 356 357 358 359 0 1 1 1 2 4 7 4
267 266 265 264 263 262 261 260 261 262 263 264 266 268 269 271 272 274 277 280 282 284 286 287 288 289 290 291 291 291 290 290 291 292 294 296 298 300 302 304 305 307 311 315 318 320 322 324 326 329 332 335 338 341 344 346 348 349 352 355 358 359 359 357 355 356 358 359 359 359 358 358 358 359 1 3 5 7 8 8 9 11 13 14 13
267 266 264 263 261 260 259 258 259 260 262 263 265 266 267 268 270 273 276 278 280 283 285 286 287 289 290 291 292 293 292 292 293 294 295 296 297 298 298 299 301 303 305 308 311 314 316 318 320 323 326 329 332 335 338 341 344 346 348 350 353 356 357 356 355 356 358 0 1 2 3 4 4 5 7 10 11 12 12 12 15 17 17 17 14
267 265 263 261 259 258 257 257 257 258 260 261 263 264 266 268 269 271 274 277 279 281 283 285 286 289 290 291 292 292 292 293 294 295 295 296 296 296 296 297 298 300 302 304 306 308 310 312 315 317 320 323 326 329 332 336 338 341 343 346 348 350 352 353 355 356 359 1 2 2 5 9 11 13 16 18 18 18 18 17 18 19 18 17 16
266 263 261 258 256 255 254 254 255 256 258 260 262 264 266 267 269 271 273 275 277 279 282 285 286 288 290 292 292 291 291 293 294 295 296 296 296 296 296 296 297 298 300 301 303 304 306 307 309 311 314 317 320 323 326 330 333 336 338 341 343 343 344 348 352 354 357 2 4 4 4 8 13 17 23 26 26 26 26 24 22 21 20 19 18
265 261 258 255 254 253 253 253 254 256 258 260 263 264 265 266 269 270 271 273 276 278 281 283 285 288 290 291 291 291 292 293 294 296 297 298 297 297 297 297 298 299 300 300 300 302 303 304 306 307 309 311 313 316 320 324 327 329 332 335 338 338 338 341 347 351 354 359 4 5 4 6 10 15 22 28 30 30 29 29 28 28 28 28 28